This is the latest recevied weather packets stored in our database for station/object VE3VGJ. If no packets are shown the sender has not sent any weather packets the latest 10 day(s).
| Time | Temp. | Humidity | Pressure | Rain* | Wind** | Luminosity | Snow |
|---|---|---|---|---|---|---|---|
| 1777683151 | 7.78° C | 62% | 1012.5 hPa | 0 mm | - | 0 W/m² | - |
| 1777682848 | 7.22° C | 63% | 1012.6 hPa | 0 mm | - | 0 W/m² | - |
| 1777682544 | 7.22° C | 63% | 1012.5 hPa | 0 mm | - | 0 W/m² | - |
| 1777682242 | 7.78° C | 63% | 1012.6 hPa | 0 mm | - | 0 W/m² | - |
| 1777681939 | 7.78° C | 63% | 1012.4 hPa | 0 mm | - | 0 W/m² | - |
| 1777681634 | 7.78° C | 63% | 1012.3 hPa | 0 mm | - | 0 W/m² | - |
| 1777681333 | 7.78° C | 62% | 1012.3 hPa | 0 mm | - | 1 W/m² | - |
| 1777681029 | 7.78° C | 62% | 1012.3 hPa | 0 mm | - | 1 W/m² | - |
| 1777680728 | 7.78° C | 63% | 1012.1 hPa | 0 mm | - | 2 W/m² | - |
| 1777680425 | 7.78° C | 63% | 1012.3 hPa | 0 mm | - | 3 W/m² | - |
| 1777680122 | 7.78° C | 63% | 1012.4 hPa | 0 mm | - | 6 W/m² | - |
| 1777679818 | 7.78° C | 63% | 1012.1 hPa | 0 mm | - | 7 W/m² | - |
| 1777679514 | 7.78° C | 63% | 1012.2 hPa | 0 mm | - | 10 W/m² | - |
| 1777679210 | 7.78° C | 64% | 1012.3 hPa | 0 mm | - | 11 W/m² | - |
| 1777678908 | 7.78° C | 63% | 1012 hPa | 0 mm | - | 10 W/m² | - |
| 1777678605 | 7.78° C | 61% | 1012.1 hPa | 0 mm | - | 9 W/m² | - |
| 1777678302 | 8.33° C | 60% | 1012 hPa | 0 mm | - | 7 W/m² | - |
| 1777677998 | 8.33° C | 59% | 1012 hPa | 0 mm | - | 9 W/m² | - |
| 1777677696 | 8.33° C | 58% | 1012 hPa | 0 mm | - | 17 W/m² | - |
| 1777677393 | 8.33° C | 56% | 1011.9 hPa | 0 mm | - | 25 W/m² | - |
| 1777677092 | 8.33° C | 55% | 1011.9 hPa | 0 mm | - | 28 W/m² | - |
| 1777676790 | 8.33° C | 55% | 1012.1 hPa | 0 mm | - | 27 W/m² | - |
| 1777676488 | 7.78° C | 55% | 1012 hPa | 0 mm | - | 28 W/m² | - |
| 1777676185 | 7.78° C | 58% | 1011.9 hPa | 0 mm | - | 32 W/m² | - |
| 1777675881 | 8.33° C | 58% | 1012.1 hPa | 0 mm | - | 38 W/m² | - |
* Rain latest hour (hover to see other rain measurements)
** Current wind speed in m/s (hover to see current wind gust speed)